Date String (YYYY-MM-DD hh:mm:ss) UTC,Instrument flags,Ambient pressure (hPa),Sample flow (lpm),Bypass flow (lpm),Sample temperature (°C),Ambient temperature (°C),ASC tube jacket temperature (°C),LED temperature (°C),Box temperature (°C),Sample RH (%),Span deviation,Mass concentration (μg/m³),Mass concentration (μg/m³),Mass concentration (μg/m³)
DateTimeUTC,F1_M11,P_M11,Q1_M11,Q2_M11,T1_M11,T2_M11,T3_M11,T4_M11,T5_M11,U1_M11,ZSPAN_M11,X0_M11,X2_M11,X1_M11
2022-04-08 06:00:00,,0834.7,5.01,0.00,23.7,22.7,00.0,32.9,25.3,07.5,0000.0,0008.10,0002.87,0001.38
2022-04-08 06:01:00,,0834.7,5.00,0.00,23.7,22.7,00.0,32.9,25.2,07.5,0000.0,0007.55,0002.78,0001.38
2022-04-08 06:02:00,,0834.8,5.00,0.00,23.6,22.6,00.0,32.9,25.2,07.6,0000.0,0007.64,0002.70,0001.38
2022-04-08 06:03:00,,0834.8,4.99,0.00,23.6,22.6,00.0,32.8,25.2,07.6,0000.0,0009.46,0002.66,0001.36
2022-04-08 06:04:00,,0834.8,5.00,0.00,23.6,22.6,00.0,32.8,25.2,07.6,0000.0,0009.74,0002.70,0001.36
2022-04-08 06:05:00,,0834.8,5.01,0.00,23.6,22.5,00.0,32.8,25.1,07.6,0000.0,0009.85,0002.75,0001.36
2022-04-08 06:06:00,,0834.8,5.01,0.00,23.5,22.5,00.0,32.7,25.1,07.6,0000.0,0009.88,0002.70,0001.36
2022-04-08 06:07:00,,0834.7,4.99,0.00,23.5,22.5,00.0,32.7,25.1,07.6,0000.0,0010.08,0002.76,0001.35
2022-04-08 06:08:00,,0834.7,4.99,0.00,23.5,22.4,00.0,32.7,25.1,07.6,0000.0,0010.04,0002.78,0001.34
2022-04-08 06:09:00,,0834.7,5.00,0.00,23.4,22.4,00.0,32.7,25.0,07.6,0000.0,0009.76,0002.82,0001.36
2022-04-08 06:10:00,,0834.7,5.00,0.00,23.4,22.4,00.0,32.6,25.0,07.6,0000.0,0010.17,0002.92,0001.37
2022-04-08 06:11:00,,0834.7,5.00,0.00,23.4,22.3,00.0,32.6,25.0,07.6,0000.0,0010.57,0002.94,0001.37
2022-04-08 06:12:00,,0834.7,5.00,0.00,23.4,22.3,00.0,32.6,25.0,07.6,0000.0,0010.81,0003.01,0001.39
2022-04-08 06:13:00,,0834.7,4.98,0.00,23.3,22.3,00.0,32.6,24.9,07.6,0000.0,0011.46,0003.07,0001.40
2022-04-08 06:14:00,,0834.7,5.01,0.00,23.3,22.3,00.0,32.5,24.9,07.6,0000.0,0010.98,0003.03,0001.42
2022-04-08 06:15:00,,0834.7,5.01,0.00,23.3,22.2,00.0,32.5,24.9,07.7,0000.0,0011.03,0002.99,0001.43
2022-04-08 06:16:00,,0834.7,5.00,0.00,23.2,22.2,00.0,32.5,24.8,07.7,0000.0,0011.27,0002.96,0001.43
2022-04-08 06:17:00,,0834.7,4.99,0.00,23.2,22.1,00.0,32.4,24.8,07.7,0000.0,0011.54,0003.05,0001.43
2022-04-08 06:18:00,,0834.7,5.00,0.00,23.2,22.1,00.0,32.4,24.8,07.7,0000.0,0012.08,0003.09,0001.46
2022-04-08 06:19:00,,0834.7,5.01,0.00,23.1,22.1,00.0,32.4,24.7,07.7,0000.0,0012.89,0003.09,0001.48
2022-04-08 06:20:00,,0834.7,5.01,0.00,23.1,22.1,00.0,32.4,24.7,07.7,0000.0,0013.59,0003.12,0001.48
2022-04-08 06:21:00,,0834.7,4.99,0.00,23.1,22.0,00.0,32.3,24.7,07.7,0000.0,0013.37,0003.08,0001.48
2022-04-08 06:22:00,,0834.7,5.01,0.00,23.1,22.0,00.0,32.3,24.6,07.6,0000.0,0013.04,0003.07,0001.48
2022-04-08 06:23:00,,0834.7,5.01,0.00,23.0,22.0,00.0,32.3,24.6,07.7,0000.0,0012.28,0003.01,0001.46
2022-04-08 06:24:00,,0834.7,4.98,0.00,23.0,21.9,00.0,32.2,24.6,07.7,0000.0,0011.67,0003.02,0001.47
2022-04-08 06:25:00,,0834.7,5.00,0.00,23.0,21.9,00.0,32.2,24.6,07.7,0000.0,0010.25,0003.09,0001.49
2022-04-08 06:26:00,,0834.7,5.01,0.00,23.0,21.9,00.0,32.2,24.6,07.7,0000.0,0010.15,0003.15,0001.50
2022-04-08 06:27:00,,0834.7,5.01,0.00,22.9,21.9,00.0,32.2,24.6,07.7,0000.0,0010.04,0003.19,0001.50
2022-04-08 06:28:00,,0834.7,4.99,0.00,22.9,21.9,00.0,32.1,24.6,07.7,0000.0,0009.74,0003.19,0001.51
2022-04-08 06:29:00,,0834.6,5.01,0.00,22.9,21.9,00.0,32.1,24.5,07.7,0000.0,0009.23,0003.14,0001.50
2022-04-08 06:30:00,,0834.7,5.01,0.00,22.9,21.9,00.0,32.1,24.5,07.8,0000.0,0008.83,0003.12,0001.50
2022-04-08 06:31:00,,0834.6,5.01,0.00,22.9,21.8,00.0,32.1,24.5,07.8,0000.0,0009.14,0003.12,0001.51
2022-04-08 06:32:00,,0834.7,5.00,0.00,22.8,21.8,00.0,32.0,24.4,07.8,0000.0,0009.10,0003.13,0001.50
2022-04-08 06:33:00,,0834.6,4.99,0.00,22.8,21.8,00.0,32.0,24.4,07.8,0000.0,0009.16,0003.16,0001.53
2022-04-08 06:34:00,,0834.6,5.01,0.00,22.8,21.8,00.0,32.0,24.4,07.8,0000.0,0009.23,0003.20,0001.55
2022-04-08 06:35:00,,0834.6,5.01,0.00,22.8,21.8,00.0,32.0,24.4,07.8,0000.0,0009.49,0003.20,0001.55
2022-04-08 06:36:00,,0834.6,4.98,0.00,22.7,21.8,00.0,31.9,24.4,07.8,0000.0,0010.12,0003.25,0001.53
2022-04-08 06:37:00,,0834.6,5.00,0.00,22.7,21.7,00.0,31.9,24.3,07.8,0000.0,0010.33,0003.27,0001.55
2022-04-08 06:38:00,,0834.6,5.00,0.00,22.7,21.7,00.0,31.9,24.3,07.8,0000.0,0010.22,0003.22,0001.56
2022-04-08 06:39:00,,0834.6,5.01,0.00,22.7,21.7,00.0,31.9,24.3,07.8,0000.0,0010.61,0003.21,0001.55
2022-04-08 06:40:00,,0834.6,4.99,0.00,22.6,21.7,00.0,31.8,24.2,07.8,0000.0,0011.62,0003.26,0001.56
2022-04-08 06:41:00,,0834.6,4.99,0.00,22.6,21.7,00.0,31.8,24.2,07.8,0000.0,0011.53,0003.28,0001.57
2022-04-08 06:42:00,,0834.6,5.00,0.00,22.6,21.6,00.0,31.8,24.2,07.8,0000.0,0010.74,0003.31,0001.59
2022-04-08 06:43:00,,0834.6,4.99,0.00,22.6,21.6,00.0,31.8,24.1,07.9,0000.0,0011.04,0003.32,0001.62
2022-04-08 06:44:00,,0834.6,5.01,0.00,22.5,21.6,00.0,31.7,24.1,07.9,0000.0,0010.89,0003.33,0001.62
2022-04-08 06:45:00,,0834.7,5.00,0.00,22.5,21.6,00.0,31.7,24.1,07.9,0000.0,0010.94,0003.35,0001.61
2022-04-08 06:46:00,,0834.6,5.01,0.00,22.5,21.6,00.0,31.7,24.1,07.9,0000.0,0010.91,0003.37,0001.63
2022-04-08 06:47:00,,0834.6,4.98,0.00,22.5,21.5,00.0,31.7,24.0,07.9,0000.0,0010.66,0003.33,0001.64
2022-04-08 06:48:00,,0834.6,5.01,0.00,22.4,21.5,00.0,31.6,24.0,07.9,0000.0,0010.54,0003.25,0001.63
2022-04-08 06:49:00,,0834.6,5.01,0.00,22.4,21.4,00.0,31.6,24.0,08.0,0000.0,0011.60,0003.26,0001.63
2022-04-08 06:50:00,,0834.6,4.98,0.00,22.4,21.4,00.0,31.6,23.9,08.0,0000.0,0012.15,0003.30,0001.64
2022-04-08 06:51:00,,0834.6,5.01,0.00,22.3,21.4,00.0,31.6,23.9,08.0,0000.0,0011.59,0003.34,0001.64
2022-04-08 06:52:00,,0834.6,5.00,0.00,22.3,21.4,00.0,31.5,23.9,08.1,0000.0,0011.01,0003.38,0001.64
2022-04-08 06:53:00,,0834.6,4.99,0.00,22.3,21.3,00.0,31.5,23.9,08.1,0000.0,0011.23,0003.38,0001.63
2022-04-08 06:54:00,,0834.6,5.01,0.00,22.2,21.3,00.0,31.5,23.8,08.1,0000.0,0011.05,0003.35,0001.60
2022-04-08 06:55:00,,0834.6,5.00,0.00,22.2,21.3,00.0,31.5,23.8,08.1,0000.0,0010.95,0003.30,0001.59
2022-04-08 06:56:00,,0834.6,4.99,0.00,22.2,21.3,00.0,31.4,23.8,08.2,0000.0,0010.89,0003.29,0001.59
2022-04-08 06:57:00,,0834.6,5.01,0.00,22.2,21.2,00.0,31.4,23.8,08.2,0000.0,0011.27,0003.33,0001.60
2022-04-08 06:58:00,,0834.6,4.99,0.00,22.2,21.2,00.0,31.4,23.8,08.2,0000.0,0011.35,0003.32,0001.59
2022-04-08 06:59:00,,0834.6,5.01,0.00,22.1,21.2,00.0,31.4,23.7,08.2,0000.0,0011.22,0003.34,0001.59
